Weather History for KFBL - September, 2013

Change the Weather History Date:

Saturday, September 7, 2013

  Actual Average Record
Temperature  
Mean Temperature 78 °F -  
Max Temperature 91 °F 78 °F 99 °F (1978)
Min Temperature 66 °F 54 °F 35 °F (2003)
Cooling Degree Days 14    
Growing Degree Days 28 (Base 50)    
Moisture  
Dew Point 69 °F    
Average Humidity 75    
Maximum Humidity 100    
Minimum Humidity 52    
Precipitation  
Precipitation 0.00 in - - ()
Sea Level Pressure  
Sea Level Pressure 29.93 in    
Wind  
Wind Speed 3 mph (NE)    
Max Wind Speed 9 mph    
Max Gust Speed -    
Visibility 10 miles    
Events      
Averages and records for this station are not official NWS values.
T = Trace of Precipitation, MM = Missing Value Source: NWS Daily Summary

Daily Weather History Graph

Daily Weather History Graph

Search for Another Location

Airport or City:

Trip Planner

Search our weather history database for the weather conditions in past years. The results will help you decide how hot, cold, wet, or windy it might be!

Date:

Astronomy

Sep. 07, 2013 Rise Set
Actual Time 6:43 AM CDT 7:38 PM CDT
Civil Twilight 6:13 AM CDT 8:07 PM CDT
Nautical Twilight 5:38 AM CDT 8:42 PM CDT
Astronomical Twilight 5:01 AM CDT 9:19 PM CDT
Moon 9:05 AM CDT (9/7) 8:28 PM CDT (9/7)
Length of Visible Light 13h 53m
Length of Day
12h 54m
Waxing Crescent, 5% of the Moon is Illuminated
Sep 7
Waxing Crescent
Sep 12
First Quarter
Sep 19
Full
Sep 26
Last Quarter
Oct 4
New

Hourly Weather History & Observations

Time (CDT) Temp. Heat Index Dew Point Humidity Pressure Visibility Wind Dir Wind Speed Gust Speed Precip Events Conditions
12:14 AM 71.6 °F - 64.4 °F 78% 29.91 in 10.0 mi Calm Calm - N/A   Clear
12:34 AM 71.6 °F - 64.4 °F 78% 29.92 in 10.0 mi Calm Calm - N/A   Scattered Clouds
12:54 AM 71.6 °F - 64.4 °F 78% 29.92 in 10.0 mi SSE 3.5 mph - N/A   Scattered Clouds
1:14 AM 71.6 °F - 64.4 °F 78% 29.92 in 10.0 mi SSE 4.6 mph - N/A   Scattered Clouds
1:34 AM 71.6 °F - 64.4 °F 78% 29.92 in 10.0 mi Calm Calm - N/A   Clear
1:54 AM 71.6 °F - 64.4 °F 78% 29.91 in 10.0 mi SSE 4.6 mph - N/A   Clear
2:14 AM 69.8 °F - 64.4 °F 83% 29.91 in 10.0 mi South 4.6 mph - N/A   Clear
2:34 AM 69.8 °F - 64.4 °F 83% 29.91 in 10.0 mi South 3.5 mph - N/A   Clear
2:54 AM 69.8 °F - 64.4 °F 83% 29.90 in 10.0 mi SSE 3.5 mph - N/A   Clear
3:14 AM 69.8 °F - 64.4 °F 83% 29.90 in 10.0 mi South 3.5 mph - N/A   Clear
3:34 AM 69.8 °F - 64.4 °F 83% 29.90 in 10.0 mi South 3.5 mph - N/A   Clear
3:54 AM 69.8 °F - 64.4 °F 83% 29.90 in 10.0 mi South 3.5 mph - N/A   Clear
4:14 AM 69.8 °F - 64.4 °F 83% 29.89 in 10.0 mi Calm Calm - N/A   Clear
4:34 AM 68.0 °F - 64.4 °F 88% 29.90 in 10.0 mi South 3.5 mph - N/A   Clear
4:54 AM 68.0 °F - 64.4 °F 88% 29.90 in 10.0 mi Calm Calm - N/A   Clear
5:14 AM 66.2 °F - 64.4 °F 94% 29.90 in 10.0 mi Calm Calm - N/A   Clear
5:34 AM 66.2 °F - 64.4 °F 94% 29.89 in 10.0 mi SSE 3.5 mph - N/A   Clear
5:54 AM 66.2 °F - 64.4 °F 94% 29.89 in 10.0 mi South 4.6 mph - N/A   Clear
6:14 AM 66.2 °F - 64.4 °F 94% 29.89 in 10.0 mi South 4.6 mph - N/A   Clear
6:34 AM 66.2 °F - 64.4 °F 94% 29.90 in 10.0 mi Calm Calm - N/A   Clear
6:54 AM 66.2 °F - 64.4 °F 94% 29.90 in 10.0 mi Calm Calm - N/A   Clear
7:14 AM 66.2 °F - 66.2 °F 100% 29.91 in 10.0 mi Calm Calm - N/A   Clear
7:34 AM 68.0 °F - 66.2 °F 94% 29.91 in 10.0 mi Calm Calm - N/A   Clear
7:54 AM 69.8 °F - 66.2 °F 88% 29.91 in 10.0 mi Calm Calm - N/A   Clear
8:14 AM 71.6 °F - 68.0 °F 88% 29.91 in 10.0 mi Calm Calm - N/A   Clear
8:34 AM 73.4 °F - 68.0 °F 83% 29.91 in 10.0 mi SW 3.5 mph - N/A   Clear
8:54 AM 73.4 °F - 68.0 °F 83% 29.91 in 10.0 mi SW 3.5 mph - N/A   Clear
9:14 AM 73.4 °F - 69.8 °F 88% 29.92 in 10.0 mi Calm Calm - N/A   Clear
9:34 AM 75.2 °F - 69.8 °F 83% 29.92 in 10.0 mi Calm Calm - N/A   Clear
9:54 AM 78.8 °F - 71.6 °F 78% 29.92 in 10.0 mi Calm Calm - N/A   Clear
10:14 AM 78.8 °F - 71.6 °F 78% 29.93 in 10.0 mi Calm Calm - N/A   Clear
10:34 AM 80.6 °F 84.6 °F 71.6 °F 74% 29.93 in 10.0 mi Calm Calm - N/A   Clear
10:54 AM 80.6 °F 84.6 °F 71.6 °F 74% 29.93 in 10.0 mi Calm Calm - N/A   Clear
11:14 AM 82.4 °F 88.2 °F 73.4 °F 74% 29.93 in 10.0 mi Calm Calm - N/A   Clear
11:34 AM 84.2 °F 90.9 °F 73.4 °F 70% 29.93 in 10.0 mi North 5.8 mph - N/A   Clear
11:53 AM 84.2 °F 90.9 °F 73.4 °F 70% 29.92 in 10.0 mi NNE 3.5 mph - N/A   Clear
12:14 PM 86.0 °F 93.4 °F 73.4 °F 66% 29.92 in 10.0 mi NNE 5.8 mph - N/A   Clear
12:34 PM 87.8 °F 95.6 °F 73.4 °F 62% 29.93 in 10.0 mi Calm Calm - N/A   Clear
12:54 PM 87.8 °F 95.6 °F 73.4 °F 62% 29.92 in 10.0 mi North 4.6 mph - N/A   Clear
1:14 PM 87.8 °F 95.6 °F 73.4 °F 62% 29.92 in 10.0 mi North 8.1 mph - N/A   Clear
1:34 PM 87.8 °F 95.6 °F 73.4 °F 62% 29.92 in 10.0 mi North 5.8 mph - N/A   Clear
1:54 PM 89.6 °F 98.2 °F 73.4 °F 59% 29.91 in 10.0 mi NNE 9.2 mph - N/A   Clear
2:14 PM 89.6 °F 98.2 °F 73.4 °F 59% 29.91 in 10.0 mi NNE 8.1 mph - N/A   Clear
2:34 PM 89.6 °F 98.2 °F 73.4 °F 59% 29.91 in 10.0 mi NNE 8.1 mph - N/A   Clear
2:54 PM 89.6 °F 98.2 °F 73.4 °F 59% 29.92 in 10.0 mi North 6.9 mph - N/A   Clear
3:14 PM 89.6 °F 98.2 °F 73.4 °F 59% 29.92 in 10.0 mi North 8.1 mph - N/A   Clear
3:33 PM 91.4 °F 98.4 °F 71.6 °F 52% 29.92 in 10.0 mi NE 9.2 mph - N/A   Scattered Clouds
3:54 PM 89.6 °F 96.2 °F 71.6 °F 55% 29.92 in 10.0 mi NNE 8.1 mph - N/A   Scattered Clouds
4:14 PM 91.4 °F 98.4 °F 71.6 °F 52% 29.92 in 10.0 mi North 8.1 mph - N/A   Scattered Clouds
4:33 PM 91.4 °F 98.4 °F 71.6 °F 52% 29.92 in 10.0 mi NNE 9.2 mph - N/A   Scattered Clouds
4:54 PM 89.6 °F 96.2 °F 71.6 °F 55% 29.92 in 10.0 mi NNE 9.2 mph - N/A   Scattered Clouds
5:14 PM 89.6 °F 96.2 °F 71.6 °F 55% 29.93 in 10.0 mi NNE 5.8 mph - N/A   Scattered Clouds
5:34 PM 89.6 °F 96.2 °F 71.6 °F 55% 29.93 in 10.0 mi NE 4.6 mph - N/A   Mostly Cloudy
5:54 PM 87.8 °F 93.8 °F 71.6 °F 58% 29.93 in 10.0 mi NNE 4.6 mph - N/A   Scattered Clouds
6:14 PM 87.8 °F 92.6 °F 69.8 °F 55% 29.93 in 10.0 mi Calm Calm - N/A   Clear
6:34 PM 86.0 °F 90.4 °F 69.8 °F 58% 29.94 in 10.0 mi NNE 3.5 mph - N/A   Clear
6:54 PM 84.2 °F 88.4 °F 69.8 °F 62% 29.94 in 10.0 mi NNE 3.5 mph - N/A   Clear
7:14 PM 84.2 °F 88.4 °F 69.8 °F 62% 29.94 in 10.0 mi Calm Calm - N/A   Clear
7:34 PM 82.4 °F 86.3 °F 69.8 °F 66% 29.95 in 10.0 mi Calm Calm - N/A   Clear
7:54 PM 78.8 °F - 69.8 °F 74% 29.95 in 10.0 mi Calm Calm - N/A   Clear
8:13 PM 75.2 °F - 69.8 °F 83% 29.96 in 10.0 mi North 3.5 mph - N/A   Clear
8:34 PM 77.0 °F - 68.0 °F 74% 29.96 in 10.0 mi North 3.5 mph - N/A   Clear
8:54 PM 77.0 °F - 68.0 °F 74% 29.97 in 10.0 mi Calm Calm - N/A   Clear
9:13 PM 75.2 °F - 68.0 °F 78% 29.97 in 10.0 mi NNE 4.6 mph - N/A   Clear
9:34 PM 75.2 °F - 68.0 °F 78% 29.97 in 10.0 mi Calm Calm - N/A   Clear
9:54 PM 75.2 °F - 68.0 °F 78% 29.98 in 10.0 mi NNE 6.9 mph - N/A   Clear
10:14 PM 75.2 °F - 66.2 °F 73% 29.98 in 10.0 mi NNE 5.8 mph - N/A   Clear
10:34 PM 75.2 °F - 66.2 °F 73% 29.99 in 10.0 mi NNE 8.1 mph - N/A   Clear
10:54 PM 75.2 °F - 68.0 °F 78% 29.98 in 10.0 mi NNE 6.9 mph - N/A   Clear
11:14 PM 73.4 °F - 68.0 °F 83% 29.99 in 10.0 mi NNE 6.9 mph - N/A   Clear
11:34 PM 73.4 °F - 68.0 °F 83% 30.00 in 10.0 mi NNE 6.9 mph - N/A   Clear
11:54 PM 71.6 °F - 68.0 °F 88% 30.00 in 10.0 mi NNE 6.9 mph - N/A   Clear